Regional Weather Roundup
Issued by NWS

Home | Current Version | Previous Version | Graphics & Text | Print | Product List | Glossary On
Versions: 1 2 3 4 5 6 7 8 9 10 11 12 13 14 15 16 17 18 19 20 21 22 23 24 25 26 27 28 29 30 31 32 33 34 35 36 37 38 39 40 41 42 43 44 45 46 47 48 49 50
000
ASUS43 KOAX 312010
RWRNE

WEATHER ROUNDUP FOR NEBRASKA
NATIONAL WEATHER SERVICE OMAHA NE
300 PM CDT FRI OCT 31 2014

NOTES: SATELLITE DATA IS BEING USED TO AUGMENT CLOUD COVER ABOVE
       12000 FEET.
       "FAIR" INDICATES FEW OR NO CLOUDS BELOW 12,000 FEET WITH NO
       SIGNIFICANT WEATHER AND/OR OBSTRUCTIONS TO VISIBILITY.

  * THESE STATIONS DO NOT REPORT WEATHER SUCH AS RAIN...SNOW OR FOG.

NEZ001>004-019>022-054>056-312100-
NEBRASKA PANHANDLE

CITY           SKY/WX    TMP DP  RH WIND       PRES   REMARKS
SCOTTSBLUFF    SUNNY     54  32  43 S21G31    30.19F
ALLIANCE       SUNNY     47  29  49 S25G33    30.23F
CHADRON        SUNNY     52  29  41 S25G33    30.17F
KIMBALL        SUNNY     52  30  43 S21G30    30.19F
SIDNEY         SUNNY     50  29  44 S23G30    30.25F
$$

NEZ057>060-069>072-079>082-312100-
SOUTHWEST NEBRASKA

CITY           SKY/WX    TMP DP  RH WIND       PRES   REMARKS
NORTH PLATTE   SUNNY     48  18  30 SE12      30.38F
IMPERIAL       SUNNY     45  23  42 SE17G24   30.35F
LEXINGTON      MOSUNNY   43  15  32 SE13      30.43F
MCCOOK         SUNNY     45  21  38 S9        30.42F
OGALLALA       SUNNY     48  27  43 S14       30.33F
$$

NEZ005>010-023>029-035>040-094-312100-
NORTH CENTRAL NEBRASKA

CITY           SKY/WX    TMP DP  RH WIND       PRES   REMARKS
VALENTINE      MOSUNNY   44  12  27 SE18      30.35F
AINSWORTH      PTSUNNY   42  12  29 SE16      30.39F
BROKEN BOW     PTSUNNY   43  15  32 SE12      30.42F
O`NEILL        SUNNY     42  16  35 SE8       30.45F
ORD            SUNNY     41  13  31 MISG      30.45F
THEDFORD       SUNNY     46  20  35 SE14G21   30.37F
$$

NEZ041-046>049-061>064-073>077-083>087-312100-
SOUTH CENTRAL NEBRASKA

CITY           SKY/WX    TMP DP  RH WIND       PRES   REMARKS
GRAND ISLAND   SUNNY     42  14  32 E5        30.49F
AURORA         SUNNY     41   9  26 NE5       30.49F
HASTINGS       SUNNY     41  15  35 VRB6      30.47F
HEBRON         SUNNY     44   9  24 NE8       30.49F
HOLDREGE       MOSUNNY   42  11  28 SE9       30.45F
KEARNEY *      SUNNY     41  14  33 NE3       30.47F
YORK           SUNNY     41  18  38 NE9       30.50F
$$

NEZ011>018-030>034-042>045-312100-
NORTHEAST NEBRASKA

CITY           SKY/WX    TMP DP  RH WIND       PRES   REMARKS
NORFOLK        SUNNY     42  14  32 E5        30.49F
ALBION         SUNNY     41  13  32 SE6       30.48F
BLAIR          SUNNY     42  18  38 N9        30.49F
FREMONT        SUNNY     42  16  34 N3        30.51F
TEKAMAH        SUNNY     44  18  35 N7        30.51F
WAYNE          SUNNY     40  16  37 CALM      30.50F
$$

NEZ050>053-065>068-078-088>093-312100-
SOUTHEAST NEBRASKA

CITY           SKY/WX    TMP DP  RH WIND       PRES   REMARKS
LINCOLN        SUNNY     44  17  33 N7        30.52F
OMAHA EPPLEY   MOSUNNY   43  17  35 VRB7      30.52F
BEATRICE       SUNNY     43  16  33 N7        30.50F
FALLS CITY     SUNNY     45  17  32 N9        30.48F
NEBRASKA CITY  SUNNY     43  11  27 NE12      30.49F
PLATTSMOUTH    SUNNY     42  14  32 CALM      30.50F
$$

NEZ044-045-051>053-067-312100-
OMAHA AREA

CITY           SKY/WX    TMP DP  RH WIND       PRES   REMARKS
OMAHA EPPLEY   MOSUNNY   43  17  35 VRB7      30.52F
BLAIR          SUNNY     42  18  38 N9        30.49F
FREMONT        SUNNY     42  16  34 N3        30.51F
MILLARD        SUNNY     42  19  40 N5        30.51F
OFFUTT AFB     SUNNY     43  17  36 NE3       30.50F
PLATTSMOUTH    SUNNY     42  14  32 CALM      30.50F
WAHOO          FAIR      43  13  30 N3        30.51F
$$



USA.gov is the U.S. government's official web portal to all federal, state and local government web resources and services.